(275462) = 2010 EB161 = 2011 DH3

Discovered at Catalina on 2006-03-25 by CSS.

Orbit

Orbit type: Main Belt

Note: WebGL enabled browser required.

epoch2024-03-31.0
epoch JD2460400.5
perihelion date2019-07-26.29933
perihelion JD2458690.79933
argument of perihelion (°)167.62112
ascending node (°)155.39973
inclination (°)25.88783
eccentricity0.1154374
perihelion distance (AU)2.8420412
Tisserand w.r.t. Jupiter3.0
ΔV w.r.t. Earth (km/sec)13.2
semimajor axis (AU)3.2129341
mean anomaly (°)292.59790
mean daily motion (°/day)0.17113980
aphelion distance (AU)3.584
period (years)5.76
P-vector [x]0.80780972
P-vector [y]-0.57117343
P-vector [z]-0.14561718
Q-vector [x]0.56072162
Q-vector [y]0.82080474
Q-vector [z]-0.10895337
absolute magnitude14.94
phase slope0.15
uncertainty0
referenceMPEC 2024-F74
observations used502
oppositions17
arc length (days)8775
first opposition used2000
last opposition used2024
residual rms (arc-secs)0.74
perturbers coarse indicatorM-v
perturbers precise indicator003Ek
first observation date used2000-03-12.0
last observation date used2024-03-21.0
computer nameMPCLINUX
JD of orbit computation2456966.728230
perihelion JD uncertainty (days)2.0908E-04
argument of perihelion uncertainty (°)3.8234E-05
ascending node uncertainty (°)1.6997E-05
inclination uncertainty (°)1.0614E-05
eccentricity uncertainty 9.3339E-08
perihelion distance uncertainty (AU)3.1488E-07
Minimum Orbit Intersection Distances (in AU)
for orbit epoch: 2460400.5, reference: E2024-GH2
Mercury2.44193
Venus2.12095
Earth1.83444
Mars1.46813
Jupiter1.81443
Saturn5.683
Uranus14.8754
Neptune26.778

Observations

511 total observations over interval: 2000 03 12.46113 – 2024 03 21.635863
These data are available for download (format description).

Date (UT) J2000 RA J2000 Dec Magn Location Ref
2000 03 12.46113 12 20 18.15 +13 07 43.2   704 – Lincoln Laboratory ETS, New Mexico MPS 407506
2000 03 12.47383 12 20 17.70 +13 07 50.1   704 – Lincoln Laboratory ETS, New Mexico MPS 407506
2000 03 12.49917 12 20 16.79 +13 08 07.0   704 – Lincoln Laboratory ETS, New Mexico MPS 407506
2001 07 18.20539 16 39 47.81 +11 19 03.3 19.7   644 – Palomar Mountain/NEAT MPS 378818
2001 07 18.21652 16 39 47.65 +11 18 56.8 20.0   644 – Palomar Mountain/NEAT MPS 378818
2001 07 18.22745 16 39 47.45 +11 18 50.9 19.8   644 – Palomar Mountain/NEAT MPS 378818
2002 08 12.30200 23 58 23.58 -06 42 17.4   704 – Lincoln Laboratory ETS, New Mexico MPS 407506
2002 08 12.31706 23 58 23.48 -06 42 26.9   704 – Lincoln Laboratory ETS, New Mexico MPS 407506
2002 08 12.33128 23 58 23.29 -06 42 37.7   704 – Lincoln Laboratory ETS, New Mexico MPS 407507
2002 08 12.34556 23 58 23.18 -06 42 47.0   704 – Lincoln Laboratory ETS, New Mexico MPS 407507
2002 08 12.35980 23 58 22.95 -06 42 57.8   704 – Lincoln Laboratory ETS, New Mexico MPS 407507
2002 09 05.54650 23 48 38.46 -11 59 37.4 20.2   608 – Haleakala-AMOS MPS 378818
2002 09 05.55751 23 48 38.05 -11 59 46.5 19.8   608 – Haleakala-AMOS MPS 378818
2002 09 05.56803 23 48 37.67 -11 59 55.0 20.0   608 – Haleakala-AMOS MPS 378818
2002 09 13.29276 23 43 56.16 -13 43 43.0   704 – Lincoln Laboratory ETS, New Mexico MPS 407507
2002 09 13.30829 23 43 55.51 -13 43 55.2   704 – Lincoln Laboratory ETS, New Mexico MPS 407507
2002 09 13.32326 23 43 54.98 -13 44 05.9   704 – Lincoln Laboratory ETS, New Mexico MPS 407507
2002 09 13.33855 23 43 54.33 -13 44 18.3   704 – Lincoln Laboratory ETS, New Mexico MPS 407507
2002 09 17.41826 23 41 19.23 -14 36 44.8 19.8   608 – Haleakala-AMOS MPS 378818
2002 09 17.42939 23 41 18.82 -14 36 53.1 19.8   608 – Haleakala-AMOS MPS 378818
2002 09 17.44009 23 41 18.38 -14 37 01.3 19.9   608 – Haleakala-AMOS MPS 378818
2006 03 25.31302 13 34 24.13 +14 33 15.2 20.5 V 703 – Catalina Sky Survey MPS 378818
2006 03 25.31962 13 34 23.95 +14 33 18.4 19.9 V 703 – Catalina Sky Survey MPS 378818
2006 03 25.32621 13 34 23.70 +14 33 22.7 19.8 V 703 – Catalina Sky Survey MPS 378818
2006 03 25.33280 13 34 23.52 +14 33 28.1 19.1 V 703 – Catalina Sky Survey MPS 378818
2006 04 02.32549 13 29 33.57 +15 52 17.0 20.1 V 703 – Catalina Sky Survey MPS 378818
2006 04 02.33581 13 29 33.18 +15 52 22.8 19.8 V 703 – Catalina Sky Survey MPS 378818
2006 04 02.34600 13 29 32.71 +15 52 27.9 19.7 V 703 – Catalina Sky Survey MPS 378818
2006 04 02.35631 13 29 32.46 +15 52 34.3 19.5 V 703 – Catalina Sky Survey MPS 378818
2008 09 01.70514 01 47 26.73 -10 19 25.6 19.0 V E12 – Siding Spring Survey MPS 378818
2008 09 01.71882 01 47 26.62 -10 19 36.2 19.4 V E12 – Siding Spring Survey MPS 378818
2008 09 01.73240 01 47 26.55 -10 19 47.1 19.3 V E12 – Siding Spring Survey MPS 378818
2008 09 28.40974 01 38 16.15 -15 55 32.9 18.6 V 703 – Catalina Sky Survey MPS 378818
2008 09 28.41691 01 38 15.90 -15 55 37.7 19.0 V 703 – Catalina Sky Survey MPS 378818
2008 09 28.42423 01 38 15.57 -15 55 42.6 18.8 V 703 – Catalina Sky Survey MPS 378818
2008 09 28.43160 01 38 15.36 -15 55 47.8 18.9 V 703 – Catalina Sky Survey MPS 378818
2008 10 27.25903 01 19 29.35 -20 07 26.2 19.7 V 703 – Catalina Sky Survey MPS 378818
2008 10 27.26751 01 19 28.95 -20 07 28.4 19.6 V 703 – Catalina Sky Survey MPS 378818
2008 10 27.27576 01 19 28.77 -20 07 29.6 19.5 V 703 – Catalina Sky Survey MPS 378818
2008 10 27.28418 01 19 28.34 -20 07 33.3 19.1 V 703 – Catalina Sky Survey MPS 378818
2010 03 15.80541 06 04 16.23 +02 19 05.7   C51 – WISE MPS 335300
2010 03 15.805411 06 04 16.20 +02 19 05.4   C51 – WISE MPS 335300
2010 03 15.93784 06 04 19.81 +02 20 12.3   C51 – WISE MPS 335300
2010 03 16.070146 06 04 23.37 +02 21 18.2   C51 – WISE MPS 335300
2010 03 16.20245 06 04 26.60 +02 22 23.6   C51 – WISE MPS 335300
2010 03 16.26867 06 04 28.49 +02 22 55.7   C51 – WISE MPS 335300
2010 03 16.334755 06 04 30.64 +02 23 28.1   C51 – WISE MPS 337469
2010 03 16.40097 06 04 32.41 +02 24 01.9   C51 – WISE MPS 337469
2010 03 16.533274 06 04 36.07 +02 25 05.5   C51 – WISE MPS 337469
2010 03 16.599362 06 04 37.92 +02 25 38.7   C51 – WISE MPS 337469
2010 03 16.599490 06 04 37.86 +02 25 38.3   C51 – WISE MPS 337469
2010 03 16.665578 06 04 39.44 +02 26 14.5   C51 – WISE MPS 337469
2010 03 16.797882 06 04 43.35 +02 27 16.7   C51 – WISE MPS 337469
2010 03 16.930185 06 04 47.02 +02 28 22.2   C51 – WISE MPS 337469
2010 03 17.062617 06 04 50.80 +02 29 28.0   C51 – WISE MPS 337469
2011 01 27.29642 10 33 41.04 +05 08 24.6 20.0 V 691 – Steward Observatory, Kitt Peak-Spacewatch MPS 374866
2011 01 27.31575 10 33 40.50 +05 08 33.2 20.1 V 691 – Steward Observatory, Kitt Peak-Spacewatch MPS 374866
2011 01 27.33417 10 33 39.96 +05 08 41.7 20.0 V 691 – Steward Observatory, Kitt Peak-Spacewatch MPS 374866
2011 02 04.35556 10 29 25.29 +06 10 18.5 20.2 V 703 – Catalina Sky Survey MPS 374866
2011 02 04.36774 10 29 24.90 +06 10 23.6 19.9 V 703 – Catalina Sky Survey MPS 374866
2011 02 04.37998 10 29 24.39 +06 10 30.0 20.4 V 703 – Catalina Sky Survey MPS 374866
2011 02 04.39218 10 29 24.00 +06 10 35.6 20.6 V 703 – Catalina Sky Survey MPS 374866
2011 02 04.45690 10 29 21.847 +06 11 08.37 20.7 w F51 – Pan-STARRS 1, Haleakala MPS 379988
2011 02 04.48561 10 29 20.811 +06 11 22.31 20.8 w F51 – Pan-STARRS 1, Haleakala MPS 379988
2011 02 04.50008 10 29 20.286 +06 11 29.43 20.7 w F51 – Pan-STARRS 1, Haleakala MPS 379988
2011 02 05.44500 10 28 47.096 +06 19 14.67 20.8 w F51 – Pan-STARRS 1, Haleakala MPS 378818
2011 02 05.45927 10 28 46.571 +06 19 21.75 20.7 w F51 – Pan-STARRS 1, Haleakala MPS 378818
2011 02 05.47371 10 28 46.049 +06 19 28.88 20.7 w F51 – Pan-STARRS 1, Haleakala MPS 378818
2011 02 05.48812 10 28 45.511 +06 19 36.01 20.7 w F51 – Pan-STARRS 1, Haleakala MPS 378818
2011 02 12.43504 10 24 24.76 +07 19 07.7 19.9 V G96 – Mt. Lemmon Survey MPS 374866
2011 02 12.44083 10 24 24.51 +07 19 10.7 20.0 V G96 – Mt. Lemmon Survey MPS 374866
2011 02 12.45242 10 24 24.04 +07 19 16.8 19.9 V G96 – Mt. Lemmon Survey MPS 374866
2011 02 23.25374 10 17 04.70 +08 57 20.7 19.6 V 703 – Catalina Sky Survey MPS 372191
2011 02 23.26277 10 17 04.34 +08 57 26.1 19.9 V 703 – Catalina Sky Survey MPS 372191
2011 02 23.27178 10 17 03.98 +08 57 30.7 19.7 V 703 – Catalina Sky Survey MPS 372191
2011 02 23.28076 10 17 03.55 +08 57 36.1 19.6 V 703 – Catalina Sky Survey MPS 372191
2011 02 24.93850 10 15 54.94 +09 12 52.3 19.0 V J75 – OAM Observatory, La Sagra MPS 372191
2011 02 24.95046 10 15 54.45 +09 12 58.8 19.2 V J75 – OAM Observatory, La Sagra MPS 372191
2011 02 24.96244 10 15 53.97 +09 13 05.7 19.3 V J75 – OAM Observatory, La Sagra MPS 372191
2011 03 05.28747 10 10 15.67 +10 29 01.8 20.2 V G96 – Mt. Lemmon Survey MPS 373579
2011 03 05.30395 10 10 15.02 +10 29 10.5 20.1 V G96 – Mt. Lemmon Survey MPS 373579
2011 03 05.31223 10 10 14.62 +10 29 15.1 20.2 V G96 – Mt. Lemmon Survey MPS 373579
2011 06 03.16075 10 12 47.48 +16 06 23.1 21.1 V G96 – Mt. Lemmon Survey MPS 384616
2011 06 03.16654 10 12 47.70 +16 06 23.0 21.0 V G96 – Mt. Lemmon Survey MPS 384616
2011 06 03.17227 10 12 47.95 +16 06 21.9 21.1 V G96 – Mt. Lemmon Survey MPS 384616
2011 06 03.17801 10 12 48.24 +16 06 21.8 20.9 V G96 – Mt. Lemmon Survey MPS 384616
2012 01 04.52150 14 19 56.28 +03 18 15.9   691 – Steward Observatory, Kitt Peak-Spacewatch MPS 407122
2012 01 04.53416 14 19 57.04 +03 18 17.5   691 – Steward Observatory, Kitt Peak-Spacewatch MPS 407122
2012 01 04.54682 14 19 57.78 +03 18 19.2   691 – Steward Observatory, Kitt Peak-Spacewatch MPS 407122
2012 04 15.27698 14 47 18.24 +16 12 39.7 19.1 V 703 – Catalina Sky Survey MPS 421777
2012 04 15.28267 14 47 18.09 +16 12 43.9 19.6 V 703 – Catalina Sky Survey MPS 421777
2012 04 15.28831 14 47 17.84 +16 12 47.7 19.4 V 703 – Catalina Sky Survey MPS 421777
2012 04 15.29398 14 47 17.66 +16 12 50.4 19.5 V 703 – Catalina Sky Survey MPS 421777
2012 04 22.35424 14 42 44.59 +17 10 18.7 19.6 R H15 – ISON-NM Observatory, Mayhill MPS 422754
2012 04 22.36945 14 42 43.93 +17 10 26.6 19.5 R H15 – ISON-NM Observatory, Mayhill MPS 422754
2012 04 22.38461 14 42 43.30 +17 10 32.7 19.8 R H15 – ISON-NM Observatory, Mayhill MPS 422754
